Regional Weather Roundup
Issued by NWS Jackson, KY

Home | Current Version | Previous Version | Graphics & Text | Print | Product List | Glossary On
Versions: 1 2 3 4 5 6 7 8 9 10 11 12 13 14 15 16 17 18 19 20 21 22 23 24 25 26 27 28 29 30 31 32 33 34 35 36 37 38 39 40 41 42 43 44 45 46 47 48 49 50
000
ASUS43 KJKL 281310
RWRJKL

EAST KENTUCKY HOURLY WEATHER ROUNDUP
NATIONAL WEATHER SERVICE JACKSON KY
900 AM EDT THU MAY 28 2015

NOTE: "FAIR" INDICATES FEW OR NO CLOUDS BELOW 12,000 FEET WITH
NO SIGNIFICANT WEATHER AND/OR OBSTRUCTIONS TO VISIBILITY.

* THESE REPORTS ARE NOT UNDER NWS QUALITY CONTROL AND MAY NOT
  REPORT WEATHER SUCH AS PRECIPITATION AND FOG.

KYZ079-080-083-085-087-088-110-112-115-119-120-281400
...EASTERN KENTUCKY...

CITY           SKY/WX    TMP DP  RH WIND       PRES   REMARKS
JACKSON        MOSUNNY   69  62  78 CALM      30.25F
LONDON         CLOUDY    67  61  81 S3        30.26R
SOMERSET*      CLOUDY    63  63 100 CALM      30.26S
MONTICELLO*    CLOUDY    69  68  97 CALM      30.27S
MIDDLESBORO*   CLOUDY    65  65 100 CALM      30.27S
HARLAN APT*    PTSUNNY   66  64  94 CALM      30.27S
HAZARD APT*    SUNNY     72  63  73 CALM      30.26R
BLACK MTN*       N/A     63  59  88 VRB2        N/A
PIKEVILLE APT* SUNNY     70  63  78 E3        30.26F
BIG SANDY*     MOSUNNY   70  66  86 E3        30.26F
MOREHEAD APT*  PTSUNNY   64  64 100 CALM      30.25S
$$

KYZ035-036-041-042-044-050-067-078-099-281400
...CENTRAL KENTUCKY...

CITY           SKY/WX    TMP DP  RH WIND       PRES   REMARKS
MT STERLING*   PTSUNNY   64  63  94 CALM      30.25S
FLEMING/MASON* CLOUDY    64  63  94 CALM      30.25R
DANVILLE*      CLOUDY    64  63  94 CALM      30.24R
RICHMOND*      CLOUDY    68  63  83 CALM      30.23S
LEXINGTON      CLOUDY    67  64  90 NW5       30.23R FOG
FRANKFORT      CLOUDY    65  63  93 CALM      30.21S FOG
$$

KYZ091>093-OHZ055-061-077-WVZ005-015-034-035-042-281400
...SOUTHERN OHIO/WEST VIRGINIA...

CITY           SKY/WX    TMP DP  RH WIND       PRES   REMARKS
COVINGTON      FOG       64  63  94 CALM      30.22R VSB 1/2
COLUMBUS       CLOUDY    67  62  84 SE3       30.22R
DAYTON         PTSUNNY   67  64  90 NE6       30.22S FOG
WILMINGTON     CLOUDY    68  62  81 CALM      30.21S
HUNTINGTON     PTSUNNY   70  62  76 S3        30.24S
CHARLESTON     PTSUNNY   69  64  84 SW5       30.25R
PINEVILLE*     RAIN      65  64  96 MISG      30.35R
BECKLEY        CLOUDY    68  57  68 N7        30.31R
BLUEFIELD      MOSUNNY   71  59  65 W7        30.33R
$$

VAZ002-007-008-TNZ017-027-036-066-071-281400
...SOUTHWEST VIRGINIA/EAST TENNESSEE...

CITY           SKY/WX    TMP DP  RH WIND       PRES   REMARKS
WISE*          MOSUNNY   70  57  64 NW8       30.32S
JONESVILLE*    MOSUNNY   66  64  94 CALM      30.28S
ABINGDON*      SUNNY     72  64  74 CALM      30.29S
BRISTOL        MOSUNNY   70  63  78 CALM      30.27R
KNOXVILLE      CLOUDY    71  63  75 SE3       30.24R
OAK RIDGE      CLOUDY    70  67  90 CALM      30.26R
CROSSVILLE     LGT RAIN  66  61  84 CALM      30.28R
NASHVILLE      LGT RAIN  69  66  90 CALM      30.23R
$$

...KEY TO REMARKS...
VSB - VISIBILITY IN MILES
WCI - WIND CHILL INDEX
HX  - HEAT INDEX

$$


USA.gov is the U.S. government's official web portal to all federal, state and local government web resources and services.